Weather in Kodskoye

Russia / Kurgan Oblast     56°23′12″N   64°52′36″E
temp.,
°C
wind,
m/s
gust,
m/s
humid.,
%
clouds,
%
prec.,
mm/h
press.,
hPa
HPBL,
m
8 may, sat
sat823:00+12sw33545 0.0 101933
02:00+11sw33595 0.0 101934
05:00+9sw22635 0.0 102021
08:00+16ssw234523 0.0 1019241
11:00+20ssw2332100 0.0 10181656
14:00+22sw232699 0.0 10172329
17:00+22ssw1224100 0.0 10162737
20:00+17s223790 0.0 101622
9 may, sun
sun923:00+15nw113699 0.0 101611
02:00+13nne2242100 0.0 101510
05:00+12ne3348100 0.0 101643
08:00+16e3544100 0.0 1016233
11:00+21e4633100 0.0 10161205
14:00+23e6826100 0.0 10163040
17:00+20ese4841100 0.0 10171231
20:00+18e51148100 0.0 1018348
10 may, mon
mon1023:00+14ene41252100 0.0 1020298
02:00+12ene41055100 0.0 1021256
05:00+11ene4955100 0.0 1022249
08:00+13ene5948100 0.0 1023552
11:00+16e673598 0.0 10241405
14:00+19e5629100 0.0 10241817
17:00+19e4529100 0.0 10241854
20:00+15ese224599 0.0 102521
11 may, tue
tue1123:00+11ese225384 0.0 102619
02:00+10sse11566 0.0 102610
05:00+8ssw226037 0.0 102610
08:00+13ssw2345100 0.0 1027238
11:00+18sw3434100 0.0 10261142
14:00+19wsw3431100 0.0 10251503
17:00+20w453154 0.0 10251706
20:00+16n3653100 0.0 1025154
12 may, wed
wed1223:00+12n598278 0.0 1026459
02:00+9nnw36885 0.0 1027135
05:00+7nnw4108698 0.0 1028263
08:00+12n5844100 0.0 1029626
11:00+14n3638100 0.0 10291276
14:00+14n3540100 0.0 10281195
17:00+16nnw3439100 0.0 10271619
20:00+12nnw2255100 0.0 102730